Flag for Mauritania Weather past 2 weeks in Nouakchott, Mauritania

Now
75 °F

Clear.


Feels Like: 76 °F
Forecast: N/A
Wind: 9 mph from North

Location: Nouakchott Airport

Current Time: Oct 20, 2014 at 10:01:18 PM

Latest Report: Oct 20, 2014 at 9:30 PM


Visibility: 5 mi

Pressure: 29.89 "Hg

Humidity: 78%

Dew point: 68 °F

Location of NouakchottLocation

Historic Weather in Nouakchott — Graph

°F

Nouakchott temperature yesterday

Maximum temperature yesterday: 97 °F (at 12:00 PM)
Minimum temperature yesterday: 75 °F (at 4:00 AM)
Average temperature yesterday: 80 °F

Past Weeks' High & Low Weather Summary

 TemperatureHumidityPressure
High108 °F (Oct 6, 1:30 PM)89% (Oct 9, 1:00 AM)29.95 "Hg (Oct 9, 1:00 AM)
Low73 °F (Oct 20, 5:00 AM)10% (Oct 6, 1:30 PM)29.77 "Hg (Oct 6, 3:30 AM)
Average84 °F58%29.85 "Hg
* Reported Oct 5 9:00 PM — Oct 20 9:00 PM, Nouakchott, Weather by CustomWeather, © 2014

Note: Actual official high and low records may vary slightly from our data, if they occured in-between our weather recording intervals... More about our weather records

Advertising

Nouakchott weather history for previous 24 hours

 ConditionsComfort  
Time TempWeatherWind HumidityBarometerVisibility
9:00 PM
Oct 20
75 °FClear.14 mph74%29.89 "Hg5 mi
8:30 PM77 °FClear.12 mph69%29.86 "Hg5 mi
8:00 PM77 °FPassing clouds.13 mph65%29.86 "Hg5 mi
7:30 PM77 °FPassing clouds.13 mph65%29.83 "Hg5 mi
7:00 PM77 °FPassing clouds.14 mph69%29.83 "Hg5 mi
6:30 PM77 °FPassing clouds.15 mph69%29.83 "Hg5 mi
6:00 PM77 °FPassing clouds.14 mph74%29.83 "Hg5 mi
5:30 PM79 °FPassing clouds.14 mph74%29.83 "Hg5 mi
5:00 PM81 °FPassing clouds.15 mph70%29.83 "Hg5 mi
4:30 PM81 °FPassing clouds.14 mph70%29.83 "Hg5 mi
4:00 PM82 °FClear.14 mph66%29.83 "Hg5 mi
3:30 PM82 °FClear.13 mph66%29.83 "Hg5 mi
3:00 PM84 °FClear.13 mph58%29.83 "Hg5 mi
2:30 PM84 °FClear.12 mph58%29.83 "Hg5 mi
2:00 PM84 °FClear.12 mph58%29.86 "Hg5 mi
1:30 PM82 °FClear.13 mph58%29.86 "Hg5 mi
1:00 PM82 °FClear.13 mph58%29.89 "Hg5 mi
12:30 PM82 °FClear.10 mph58%29.89 "Hg5 mi
12:00 PM82 °FClear.9 mph62%29.89 "Hg5 mi
11:30 AM82 °FClear.8 mph62%29.92 "Hg5 mi
11:00 AM82 °FClear.8 mph62%29.92 "Hg5 mi
10:30 AM84 °FClear.7 mph48%29.92 "Hg5 mi
10:00 AM82 °FClear.6 mph51%29.92 "Hg5 mi
9:30 AM81 °FClear.7 mph54%29.89 "Hg5 mi
9:00 AM77 °FClear.7 mph61%29.89 "Hg5 mi
8:30 AM75 °FClear.6 mph65%29.89 "Hg5 mi
8:00 AM73 °FClear.5 mph69%29.89 "Hg5 mi
7:30 AM73 °FClear.5 mph69%29.86 "Hg5 mi
7:00 AM73 °FClear.6 mph69%29.86 "Hg5 mi
6:30 AM73 °FClear.7 mph69%29.83 "Hg5 mi
6:00 AM73 °FClear.7 mph69%29.83 "Hg5 mi
5:00 AM73 °FClear.7 mph74%29.83 "Hg5 mi
3:30 AM75 °FClear.8 mph69%29.83 "Hg5 mi
3:00 AM75 °FClear.8 mph69%29.83 "Hg5 mi
2:30 AM75 °FClear.6 mph69%29.83 "Hg5 mi
2:00 AM75 °FClear.9 mph69%29.83 "Hg5 mi
1:30 AM75 °FClear.9 mph69%29.83 "Hg5 mi
1:00 AM75 °FClear.6 mph69%29.86 "Hg5 mi
12:30 AM75 °FClear.6 mph74%29.86 "Hg5 mi
12:00 AM75 °FClear.8 mph74%29.86 "Hg5 mi
11:30 PM
Oct 19
75 °FClear.9 mph69%29.86 "Hg5 mi
11:00 PM75 °FClear.12 mph65%29.86 "Hg5 mi
10:30 PM75 °FClear.13 mph61%29.83 "Hg5 mi
10:00 PM75 °FClear.13 mph57%29.83 "Hg5 mi
Weather by CustomWeather, © 2014

See weather overviewHow to use our weather pages